[[{"header":{"parameterUnit":"m.s-1","parameterCategory":2,"la1":30.2991,"la2":30.254,"lo1":-89.0895,"lo2":-89.0444,"dy":0.0017,"dx":0.0017,"nx":28,"ny":28,"refTime":"2024-10-07T21:00:00:Z","depth":"0","parameterNumber":2,"parameterNumberName":"U-component_of_CURRENTS"},"data":[0,0,0,0,0,0,0,0,0,0,0,0,0,0,0,0,0,0,0,0,0,0,0,0,0,0,0,0,0,0,0,0,0,0,0,0,0,0,0,0,0,0,0,0,0,0,0,0,0,0,0,0,0,0,0,0,0,0,0.2623,0.2623,0,0.2636,0.2636,0.2636,0.2614,0.2614,0.2613,0.2613,0.2613,0.2614,0.2614,0,0,0,0,0,0,0,0,0,0,0,0,0,0.2607,0.2607,0.2623,0.2624,0.2624,0.2636,0.2636,0.2636,0.2614,0.2614,0.2613,0.2612,0.2613,0.2614,0.2614,0,0,0,0,0,0,0,0,0,0,0,0,0,0.2615,0.2607,0.2623,0.2616,0.2615,0.2636,0.2636,0.2636,0.2615,0.2614,0.2613,0.2612,0.2613,0.2614,0.2615,0.2637,0,0,0.2617,0.2617,0,0,0,0,0,0,0,0,0.2614,0.2615,0.2617,0.2616,0.2616,0.2624,0.263,0.2636,0.2615,0.2613,0.2613,0.2612,0.2618,0.2618,0.262,0.2637,0.2637,0.2617,0.2618,0.2618,0.2618,0,0,0,0,0,0,0,0.2614,0.2614,0.2626,0.2617,0.2617,0.2621,0.2621,0.2631,0.2618,0.2613,0.2612,0.2617,0.2617,0.2619,0.262,0.2637,0.2617,0.2618,0.2618,0.2619,0.2689,0.269,0,0,0,0,0,0,0.2615,0.2614,0.2626,0.2627,0.2615,0.2622,0.2622,0.2621,0.2618,0.2618,0.2617,0.2616,0.2618,0.2619,0.262,0.2661,0.2618,0.2619,0.2619,0.2688,0.2689,0.2691,0,0,0,0,0,0,0.2615,0.2616,0.2626,0.2622,0.2624,0.2623,0.2623,0.2622,0.2627,0.2622,0.2621,0.2624,0.2618,0.2619,0.2637,0.266,0.2619,0.262,0.2686,0.2688,0.269,0.2733,0,0,0,0,0,0,0.2614,0.2616,0.262,0.2622,0.2624,0.2646,0.2624,0.2623,0.2632,0.263,0.2628,0.2627,0.2617,0.2636,0.2638,0.266,0.262,0.2684,0.2687,0.269,0.273,0.2737,0.2742,0,0,0,0,0,0.2613,0.2624,0.262,0.2622,0.2629,0.2648,0.2649,0.2645,0.2633,0.2644,0.2641,0.2627,0.2654,0.2638,0.264,0.2663,0.2683,0.2686,0.2689,0.2728,0.2735,0.2742,0,0,0,0,0,0,0.2624,0.2624,0.2619,0.263,0.2642,0.2645,0.2657,0.2652,0.2659,0.2657,0.2644,0.2644,0.2671,0.2664,0.2647,0.2692,0.2667,0.2671,0.2695,0.2703,0.2709,0.2719,0.2621,0,0,0,0,0,0.2629,0.2631,0.2638,0.2648,0.2656,0.2658,0.2666,0.2665,0.267,0.2671,0.2669,0.2672,0.2687,0.2691,0.2702,0.2725,0.2731,0.2743,0.2749,0.2754,0.2765,0.2792,0.2802,0.2701,0.2701,0.2701,0,0,0.2634,0.2636,0.2637,0.265,0.2658,0.2676,0.266,0.2679,0.2694,0.2672,0.2692,0.2697,0.27,0.2727,0.2738,0.2721,0.2787,0.2757,0.2762,0.277,0.2796,0.2806,0.2815,0.2703,0.2703,0.2702,0,0,0.2648,0.2651,0.2659,0.2674,0.2692,0.2697,0.2705,0.2715,0.272,0.274,0.2734,0.2755,0.2764,0.2778,0.2784,0.2833,0.2822,0.2834,0.2867,0.2894,0.2902,0.2909,0.2935,0.2944,0.2831,0.2831,0.2831,0,0.2656,0.2662,0.2668,0.2687,0.27,0.2708,0.2727,0.2742,0.2756,0.2766,0.2751,0.2788,0.2791,0.2833,0.285,0.2848,0.2857,0.2836,0.2901,0.2908,0.2915,0.294,0.2949,0.2834,0.2833,0.2833,0.2833,0,0.2675,0.2686,0.2698,0.2717,0.2739,0.2757,0.278,0.2799,0.2801,0.281,0.2849,0.2858,0.2876,0.2887,0.2882,0.2938,0.2928,0.2909,0.288,0.2928,0.2951,0.296,0.2837,0.2836,0.2835,0.2835,0,0,0.2666,0.2701,0.2703,0.2712,0.2753,0.2766,0.2807,0.2838,0.2865,0.2879,0.2912,0.2945,0.2947,0.2957,0.2961,0.2989,0.3048,0.2971,0.2971,0.2993,0.3109,0.3071,0.3077,0.3035,0.3037,0.3038,0.3107,0,0.2674,0.2699,0.2723,0.2751,0.2764,0.2796,0.2834,0.2868,0.2898,0.2937,0.2957,0.2996,0.2975,0.2994,0.3017,0.305,0.3074,0.3032,0.3063,0.3065,0.3022,0.3087,0.2976,0.3025,0.3116,0.3118,0.3119,0,0.2674,0.269,0.2713,0.2754,0.2765,0.2791,0.2847,0.2884,0.2953,0.2982,0.3023,0.3043,0.3101,0.307,0.3136,0.3108,0.3114,0.3129,0.3131,0.3088,0.3044,0.2992,0.3038,0.2951,0.3133,0.3132,0.3131,0,0.2635,0.2679,0.2689,0.2704,0.276,0.278,0.2816,0.2889,0.2933,0.3019,0.3059,0.3117,0.3153,0.3177,0.3202,0.3175,0.327,0.323,0.32,0.3197,0.3106,0.3091,0.3067,0.3271,0.3271,0.3271,0.3271,0,0.2617,0.2624,0.2669,0.2673,0.27,0.2754,0.2802,0.2858,0.2951,0.3003,0.3074,0.3129,0.3182,0.3232,0.3237,0.3257,0.3293,0.3229,0.322,0.3118,0.3105,0.3026,0.2998,0.3273,0.3273,0.3272,0.3272,0,0.2563,0.2592,0.2605,0.2659,0.2677,0.2696,0.2784,0.2825,0.2926,0.3001,0.3033,0.3157,0.323,0.3274,0.3336,0.3302,0.3237,0.3318,0.3198,0.3174,0.3042,0.3022,0.2909,0.2819,0.3299,0.3298,0.3298,0,0.2532,0.2532,0.2579,0.2588,0.2608,0.265,0.2682,0.2794,0.2849,0.3004,0.3036,0.3155,0.3223,0.332,0.3311,0.3332,0.3221,0.3213,0.3138,0.3041,0.3013,0.2894,0.2817,0.3039,0.3036,0.3034,0.3032,0,0.2475,0.2492,0.2504,0.2526,0.255,0.258,0.2639,0.2688,0.2814,0.2892,0.3009,0.3091,0.3205,0.3198,0.3235,0.3224,0.3058,0.3171,0.3099,0.2842,0.2683,0.2588,0.2993,0.3015,0.3016,0.3018,0.3019,0.3019,0.2426,0.2421,0.244,0.2453,0.2476,0.2497,0.2501,0.2583,0.2657,0.2749,0.2893,0.2954,0.3039,0.3096,0.3067,0.295,0.2944,0.2842,0.2839,0.2738,0.26,0.2972,0.2961,0.2962,0.2964,0.2965,0.2966,0,0.2357,0.2358,0.2368,0.2373,0.236,0.2405,0.2453,0.2445,0.2486,0.2597,0.268,0.2736,0.2758,0.2795,0.2755,0.2631,0.2502,0.255,0.2357,0.2308,0.2669,0.2606,0.2481,0.2481,0.2482,0.2482,0.2482,0.2482,0.2319,0.2292,0.2295,0.2247,0.2251,0.2203,0.2208,0.2223,0.2274,0.2299,0.2317,0.2391,0.2543,0.2589,0.2473,0.2403,0.2192,0.2102,0.2092,0.2358,0.2383,0.2408,0.2341,0.2163,0.2162,0.1613,0.1609,0.1606]},{"header":{"parameterUnit":"m.s-1","parameterCategory":2,"la1":30.2991,"la2":30.254,"lo1":-89.0895,"lo2":-89.0444,"dy":0.0017,"dx":0.0017,"nx":28,"ny":28,"refTime":"2024-10-07T21:00:00:Z","depth":"0","parameterNumber":3,"parameterNumberName":"V-component_of_CURRENTS"},"data":[0,0,0,0,0,0,0,0,0,0,0,0,0,0,0,0,0,0,0,0,0,0,0,0,0,0,0,0,0,0,0,0,0,0,0,0,0,0,0,0,0,0,0,0,0,0,0,0,0,0,0,0,0,0,0,0,0,0,-0.0165,-0.0166,0,-0.0226,-0.0226,-0.0227,-0.0263,-0.0263,-0.0263,-0.0263,-0.0339,-0.0341,-0.0343,0,0,0,0,0,0,0,0,0,0,0,0,0,-0.0132,-0.0132,-0.0165,-0.0166,-0.0166,-0.0226,-0.0227,-0.0228,-0.0263,-0.0263,-0.0263,-0.0263,-0.0339,-0.0341,-0.0344,0,0,0,0,0,0,0,0,0,0,0,0,0,-0.0166,-0.0133,-0.0165,-0.019,-0.0192,-0.0225,-0.0227,-0.0228,-0.0263,-0.0263,-0.0263,-0.0263,-0.0338,-0.0341,-0.0344,-0.0363,0,0,-0.0353,-0.0355,0,0,0,0,0,0,0,0,-0.0164,-0.0168,-0.0185,-0.0188,-0.0191,-0.0235,-0.0243,-0.0273,-0.0263,-0.0238,-0.0263,-0.0263,-0.0305,-0.0311,-0.0324,-0.0367,-0.037,-0.0354,-0.0356,-0.0357,-0.0358,0,0,0,0,0,0,0,-0.0162,-0.0166,-0.0191,-0.0186,-0.0189,-0.0216,-0.022,-0.0249,-0.0272,-0.024,-0.0242,-0.0246,-0.0307,-0.0321,-0.0326,-0.0371,-0.0354,-0.0356,-0.0358,-0.0359,-0.0426,-0.0426,0,0,0,0,0,0,-0.0148,-0.0163,-0.0189,-0.0192,-0.0176,-0.0216,-0.0221,-0.0222,-0.0272,-0.0279,-0.0246,-0.0248,-0.0316,-0.0323,-0.0329,-0.0337,-0.0357,-0.036,-0.0362,-0.0426,-0.0426,-0.0426,0,0,0,0,0,0,-0.0147,-0.015,-0.0186,-0.0178,-0.0184,-0.0216,-0.0217,-0.0224,-0.0234,-0.0276,-0.0284,-0.0249,-0.0316,-0.0325,-0.0349,-0.0341,-0.0361,-0.0364,-0.0426,-0.0426,-0.0426,-0.0365,0,0,0,0,0,0,-0.0146,-0.0149,-0.0147,-0.0177,-0.0184,-0.0197,-0.0217,-0.0225,-0.0236,-0.0238,-0.0281,-0.0289,-0.0317,-0.0344,-0.0352,-0.0346,-0.0366,-0.0426,-0.0426,-0.0426,-0.0367,-0.0363,-0.0359,0,0,0,0,0,-0.0145,-0.0138,-0.0146,-0.0149,-0.0179,-0.0196,-0.0202,-0.0226,-0.0236,-0.0237,-0.0266,-0.0287,-0.0349,-0.0346,-0.0356,-0.035,-0.0426,-0.0426,-0.0426,-0.0369,-0.0363,-0.0359,0,0,0,0,0,0,-0.0126,-0.0142,-0.0151,-0.0151,-0.0168,-0.0201,-0.0205,-0.0221,-0.0246,-0.0247,-0.0288,-0.0297,-0.0317,-0.0343,-0.0339,-0.037,-0.0391,-0.0392,-0.0344,-0.0339,-0.0335,-0.0311,-0.0369,0,0,0,0,0,-0.0119,-0.0117,-0.0139,-0.0139,-0.0144,-0.0174,-0.0184,-0.0198,-0.0223,-0.0234,-0.0264,-0.0296,-0.0325,-0.0338,-0.0369,-0.0384,-0.04,-0.0387,-0.0383,-0.0379,-0.0366,-0.0385,-0.0381,-0.0425,-0.0425,-0.0425,0,0,-0.0113,-0.0121,-0.012,-0.0135,-0.0151,-0.0148,-0.018,-0.0188,-0.0187,-0.0239,-0.0249,-0.0285,-0.0327,-0.0345,-0.0355,-0.0364,-0.0376,-0.0379,-0.0376,-0.0364,-0.0384,-0.038,-0.0376,-0.0425,-0.0425,-0.0425,0,0,-0.0092,-0.0104,-0.0091,-0.01,-0.0115,-0.013,-0.0128,-0.0155,-0.0168,-0.0184,-0.022,-0.0246,-0.0291,-0.0315,-0.0335,-0.0327,-0.0356,-0.0341,-0.0298,-0.0316,-0.0312,-0.0309,-0.0322,-0.032,-0.0336,-0.0336,-0.0336,0,-0.0083,-0.0068,-0.0092,-0.0082,-0.0081,-0.0115,-0.0099,-0.0118,-0.015,-0.0155,-0.0177,-0.0237,-0.0274,-0.0291,-0.029,-0.0316,-0.033,-0.0311,-0.0309,-0.0306,-0.0304,-0.0318,-0.0317,-0.0333,-0.0334,-0.0334,-0.0334,0,-0.005,-0.0039,-0.0033,-0.0027,-0.0032,-0.0024,-0.0047,-0.0055,-0.0076,-0.0095,-0.0119,-0.0174,-0.0204,-0.0226,-0.0257,-0.026,-0.0278,-0.0303,-0.0316,-0.0295,-0.0312,-0.0312,-0.0329,-0.033,-0.0331,-0.0332,0,0,-0.0021,-0.0009,-0.0005,0.0011,0.0002,0.0005,0.0007,0.0003,0.0014,-0.0032,-0.0025,-0.0086,-0.0115,-0.0138,-0.0184,-0.0204,-0.0207,-0.0241,-0.0243,-0.0243,-0.0242,-0.0242,-0.0242,-0.0232,-0.0232,-0.0231,-0.0259,0,0.0017,0.0058,0.0049,0.0087,0.0107,0.0081,0.0085,0.0074,0.0058,0.0054,-0.0004,-0.0022,-0.0082,-0.0096,-0.0124,-0.0185,-0.0204,-0.0197,-0.027,-0.0272,-0.0266,-0.0241,-0.0204,-0.0224,-0.0259,-0.0259,-0.0259,0,0.006,0.0083,0.0129,0.0152,0.0158,0.0169,0.0184,0.0187,0.0166,0.0151,0.0124,0.0077,0.0039,-0.0018,-0.0098,-0.009,-0.0155,-0.0208,-0.021,-0.0229,-0.0272,-0.0252,-0.0223,-0.0336,-0.0259,-0.0259,-0.0259,0,0.0107,0.0142,0.0186,0.0193,0.0207,0.0218,0.0225,0.0217,0.0238,0.0218,0.0229,0.0166,0.0145,0.0056,-0.0053,-0.0075,-0.0139,-0.0184,-0.0246,-0.0247,-0.0238,-0.0238,-0.0315,-0.0237,-0.0237,-0.0237,-0.0237,0,0.0159,0.0192,0.0211,0.0233,0.0284,0.0269,0.032,0.0312,0.0323,0.0363,0.0286,0.0308,0.0164,0.0104,-0.0012,-0.0115,-0.0107,-0.0225,-0.0249,-0.0216,-0.0215,-0.0332,-0.0409,-0.0238,-0.0237,-0.0237,-0.0237,0,0.0206,0.0218,0.0269,0.0295,0.0308,0.0344,0.039,0.0427,0.0421,0.0473,0.047,0.0426,0.0354,0.0206,0.0071,-0.0044,-0.0218,-0.0202,-0.015,-0.0168,-0.0337,-0.0412,-0.0521,-0.0565,-0.0272,-0.0272,-0.0272,0,0.0235,0.0267,0.0321,0.036,0.0375,0.0426,0.0464,0.0477,0.0529,0.0557,0.0595,0.054,0.0535,0.0339,0.0126,-0.0066,-0.0201,-0.0179,-0.0219,-0.0326,-0.0429,-0.0491,-0.0524,-0.0186,-0.0185,-0.0185,-0.0184,0,0.029,0.0307,0.0351,0.043,0.0481,0.0549,0.0608,0.0667,0.0691,0.0749,0.0819,0.0818,0.063,0.047,0.0187,0.0042,-0.0249,-0.0175,-0.0299,-0.0371,-0.043,-0.0489,-0.0192,-0.0179,-0.018,-0.018,-0.018,-0.0181,0.033,0.0371,0.0428,0.0507,0.0573,0.0661,0.0731,0.0816,0.0922,0.1021,0.1006,0.1052,0.0772,0.0411,0.0192,-0.0189,-0.0222,-0.0309,-0.0392,-0.0444,-0.0486,-0.0173,-0.0184,-0.0184,-0.0185,-0.0185,-0.0185,0,0.0379,0.0426,0.0501,0.0593,0.0678,0.0701,0.0821,0.0908,0.1058,0.1169,0.1249,0.1164,0.083,0.0453,-0.0071,-0.035,-0.0458,-0.0511,-0.0593,-0.0617,-0.0342,-0.0336,-0.0363,-0.0363,-0.0363,-0.0363,-0.0363,-0.0363,0.0405,0.0482,0.052,0.0663,0.0734,0.0852,0.0929,0.107,0.1185,0.1357,0.142,0.1429,0.1137,0.0194,-0.0426,-0.0566,-0.0777,-0.0828,-0.0941,-0.076,-0.0747,-0.0736,-0.0748,-0.0861,-0.0862,-0.1158,-0.1161,-0.1163]}],[{"header":{"parameterUnit":"m.s-1","parameterCategory":2,"la1":30.2991,"la2":30.254,"lo1":-89.0895,"lo2":-89.0444,"dy":0.0017,"dx":0.0017,"nx":28,"ny":28,"refTime":"2024-10-07T21:00:00:Z","depth":"2","parameterNumber":2,"parameterNumberName":"U-component_of_CURRENTS"},"data":[0,0,0,0,0,0,0,0,0,0,0,0,0,0,0,0,0,0,0,0,0,0,0,0,0,0,0,0,0,0,0,0,0,0,0,0,0,0,0,0,0,0,0,0,0,0,0,0,0,0,0,0,0,0,0,0,0,0,0.2164,0.2164,0,0.218,0.218,0.2181,0.2178,0.2178,0.2177,0.2177,0.2191,0.2191,0.2191,0,0,0,0,0,0,0,0,0,0,0,0,0,0.2136,0.2136,0.2164,0.2164,0.2165,0.218,0.218,0.2181,0.2178,0.2178,0.2177,0.2177,0.219,0.2191,0.2192,0,0,0,0,0,0,0,0,0,0,0,0,0,0.2148,0.2136,0.2164,0.2167,0.2167,0.218,0.218,0.2181,0.2178,0.2178,0.2177,0.2177,0.219,0.2191,0.2192,0.2198,0,0,0.2194,0.2194,0,0,0,0,0,0,0,0,0.2147,0.2148,0.2166,0.2167,0.2167,0.2179,0.2176,0.2187,0.2178,0.2171,0.2177,0.2177,0.2188,0.2189,0.2189,0.2199,0.2199,0.2194,0.2194,0.2194,0.2194,0,0,0,0,0,0,0,0.2146,0.2148,0.2168,0.2166,0.2167,0.217,0.2171,0.2178,0.2178,0.2172,0.2172,0.2178,0.2188,0.2188,0.2189,0.22,0.2194,0.2194,0.2195,0.2195,0.2274,0.2275,0,0,0,0,0,0,0.2148,0.2147,0.2168,0.2169,0.2159,0.217,0.2172,0.2173,0.2178,0.218,0.2178,0.2178,0.2187,0.2189,0.219,0.224,0.2194,0.2195,0.2195,0.2272,0.2274,0.2276,0,0,0,0,0,0,0.2148,0.215,0.2167,0.216,0.2163,0.2171,0.2173,0.2174,0.2188,0.2183,0.2184,0.2193,0.2187,0.2189,0.2218,0.2238,0.2195,0.2196,0.227,0.2273,0.2275,0.2312,0,0,0,0,0,0,0.2147,0.2149,0.2158,0.216,0.2163,0.2187,0.2174,0.2174,0.2192,0.2192,0.2197,0.2197,0.2187,0.2218,0.2219,0.2239,0.2196,0.2268,0.2271,0.2274,0.2309,0.2316,0.2322,0,0,0,0,0,0.2146,0.2157,0.2158,0.2161,0.2173,0.2188,0.2191,0.2194,0.2193,0.2205,0.2215,0.2197,0.2239,0.222,0.2221,0.2241,0.2266,0.227,0.2274,0.2306,0.2314,0.2322,0,0,0,0,0,0,0.215,0.2158,0.2159,0.2173,0.2186,0.2189,0.2203,0.2205,0.2221,0.2226,0.2218,0.2219,0.2251,0.2248,0.2227,0.2276,0.2251,0.2255,0.2275,0.2282,0.2289,0.23,0.2197,0,0,0,0,0,0.2156,0.2164,0.2174,0.2187,0.2196,0.2203,0.2213,0.2217,0.2229,0.2235,0.224,0.2252,0.2266,0.2276,0.2286,0.2314,0.2318,0.233,0.2336,0.2342,0.2354,0.2378,0.2387,0.2289,0.2289,0.2289,0,0,0.216,0.2167,0.2172,0.2189,0.2199,0.2218,0.2208,0.223,0.2248,0.2235,0.2267,0.2273,0.228,0.2309,0.2324,0.231,0.2374,0.2347,0.2351,0.2361,0.2383,0.2392,0.24,0.2291,0.2291,0.229,0,0,0.2173,0.2183,0.2195,0.221,0.2232,0.2239,0.225,0.2266,0.2278,0.2307,0.2306,0.2333,0.2349,0.2363,0.237,0.2422,0.2406,0.2423,0.2464,0.2486,0.2494,0.2501,0.2523,0.2532,0.2427,0.2427,0.2427,0,0.218,0.2192,0.2203,0.2222,0.2236,0.2252,0.2271,0.229,0.2314,0.2328,0.2324,0.2369,0.2376,0.2415,0.2438,0.2435,0.2445,0.2428,0.2493,0.25,0.2506,0.2528,0.2537,0.2429,0.2429,0.2429,0.2428,0,0.2198,0.2214,0.2227,0.2252,0.2273,0.2293,0.2319,0.2344,0.2359,0.2373,0.2417,0.2434,0.2459,0.2469,0.2471,0.2525,0.2515,0.2495,0.2468,0.2518,0.2538,0.2547,0.2432,0.2432,0.2431,0.243,0,0,0.2189,0.2229,0.2233,0.2245,0.2288,0.2301,0.2346,0.2379,0.2412,0.2438,0.2477,0.2514,0.2525,0.2537,0.2545,0.2575,0.2633,0.2562,0.2562,0.2576,0.2687,0.264,0.2644,0.2619,0.262,0.2622,0.2683,0,0.2197,0.2226,0.225,0.2283,0.2297,0.2332,0.2371,0.2409,0.2446,0.2492,0.2518,0.2563,0.255,0.2576,0.2601,0.2631,0.2658,0.2619,0.2644,0.2646,0.259,0.2653,0.2447,0.2481,0.2691,0.2693,0.2694,0,0.2199,0.2218,0.2247,0.2288,0.2301,0.233,0.239,0.2431,0.2503,0.2537,0.2583,0.2608,0.267,0.2648,0.2711,0.2686,0.2695,0.2709,0.2711,0.2661,0.2615,0.2465,0.2488,0.2708,0.2707,0.2706,0.2705,0,0.2165,0.2211,0.2229,0.2244,0.2302,0.2327,0.2367,0.2441,0.2486,0.258,0.2619,0.2679,0.2722,0.2745,0.2772,0.275,0.2833,0.2797,0.2761,0.2757,0.2585,0.2563,0.2838,0.2838,0.2838,0.2838,0.2838,0,0.215,0.2164,0.2216,0.2225,0.226,0.2312,0.2367,0.2426,0.2517,0.2567,0.2641,0.2689,0.275,0.2794,0.2802,0.2815,0.2851,0.2789,0.2777,0.2593,0.2573,0.2767,0.2758,0.284,0.284,0.2839,0.2839,0,0.2106,0.2139,0.2161,0.222,0.2242,0.227,0.236,0.24,0.2502,0.2574,0.2609,0.2718,0.2782,0.2825,0.2884,0.2852,0.2872,0.2861,0.2648,0.261,0.2774,0.2766,0.2834,0.2833,0.2832,0.2831,0.2831,0,0.2082,0.2089,0.2146,0.2159,0.2187,0.2238,0.2274,0.2382,0.243,0.2572,0.2596,0.2707,0.2753,0.2834,0.2822,0.2838,0.2871,0.2638,0.2558,0.2795,0.2777,0.2771,0.2765,0.2346,0.2341,0.2338,0.2335,0,0.2036,0.206,0.2078,0.2108,0.214,0.2173,0.2234,0.2269,0.2387,0.2449,0.2533,0.2594,0.2693,0.2627,0.2667,0.2639,0.2621,0.2563,0.2868,0.2382,0.2341,0.2321,0.233,0.2302,0.2305,0.2307,0.2309,0.2311,0.1999,0.1999,0.2024,0.2044,0.2075,0.2089,0.2086,0.2148,0.2198,0.2261,0.2386,0.2402,0.2456,0.2418,0.2353,0.2307,0.2483,0.2356,0.2365,0.2378,0.2314,0.2274,0.2211,0.2213,0.2215,0.2217,0.2219,0,0.1939,0.1945,0.1957,0.1965,0.1952,0.2009,0.2036,0.2002,0.2002,0.2093,0.2144,0.2006,0.1991,0.2038,0.1929,0.1942,0.1898,0.1851,0.1766,0.1802,0.1834,0.1738,0.1483,0.1481,0.1478,0.1476,0,0,0.1907,0.1884,0.1884,0.1834,0.1842,0.1793,0.1786,0.1753,0.1776,0.1748,0.1748,0.1909,0.1994,0.1705,0.1682,0.1559,0.166,0.15,0.21,0.2038,0.2065,0.2147,0.2044,0,0,0,0,0]},{"header":{"parameterUnit":"m.s-1","parameterCategory":2,"la1":30.2991,"la2":30.254,"lo1":-89.0895,"lo2":-89.0444,"dy":0.0017,"dx":0.0017,"nx":28,"ny":28,"refTime":"2024-10-07T21:00:00:Z","depth":"2","parameterNumber":3,"parameterNumberName":"V-component_of_CURRENTS"},"data":[0,0,0,0,0,0,0,0,0,0,0,0,0,0,0,0,0,0,0,0,0,0,0,0,0,0,0,0,0,0,0,0,0,0,0,0,0,0,0,0,0,0,0,0,0,0,0,0,0,0,0,0,0,0,0,0,0,0,0.0194,0.0193,0,0.0147,0.0146,0.0146,0.0108,0.0108,0.0108,0.0107,0.0047,0.0046,0.0044,0,0,0,0,0,0,0,0,0,0,0,0,0,0.0213,0.0214,0.0194,0.0193,0.0193,0.0147,0.0146,0.0146,0.0108,0.0108,0.0108,0.0107,0.0047,0.0046,0.0044,0,0,0,0,0,0,0,0,0,0,0,0,0,0.0189,0.0214,0.0194,0.0169,0.0167,0.0147,0.0146,0.0145,0.0108,0.0108,0.0107,0.0107,0.0048,0.0046,0.0044,0.0041,0,0,0.0038,0.0037,0,0,0,0,0,0,0,0,0.019,0.0188,0.0173,0.0171,0.0168,0.0134,0.0131,0.011,0.0108,0.013,0.0107,0.0107,0.0075,0.0071,0.0062,0.0038,0.0035,0.0038,0.0036,0.0036,0.0035,0,0,0,0,0,0,0,0.0192,0.019,0.0174,0.0173,0.017,0.0148,0.0144,0.0127,0.0105,0.0128,0.0125,0.0121,0.0074,0.0064,0.0061,0.0034,0.0038,0.0036,0.0035,0.0034,-0.0009,-0.0009,0,0,0,0,0,0,0.0202,0.0192,0.0176,0.0173,0.0179,0.0148,0.0144,0.0144,0.0105,0.0099,0.0122,0.012,0.0068,0.0063,0.0058,0.0054,0.0036,0.0034,0.0033,-0.0009,-0.0009,-0.0009,0,0,0,0,0,0,0.0203,0.0201,0.0178,0.0182,0.0177,0.0148,0.0149,0.0144,0.0133,0.0101,0.0094,0.0116,0.0067,0.0061,0.0043,0.0051,0.0033,0.0031,-0.0009,-0.0009,-0.0009,0.0044,0,0,0,0,0,0,0.0204,0.0202,0.0204,0.0183,0.0177,0.0172,0.015,0.0143,0.0131,0.0128,0.0094,0.0088,0.0067,0.0046,0.0041,0.0048,0.0029,-0.0009,-0.0009,-0.0009,0.0043,0.0046,0.005,0,0,0,0,0,0.0205,0.0214,0.0205,0.0202,0.0182,0.0172,0.0168,0.0145,0.0132,0.0132,0.0106,0.0089,0.0043,0.0044,0.0038,0.0046,-0.0009,-0.0009,-0.0009,0.0041,0.0046,0.0049,0,0,0,0,0,0,0.0223,0.0211,0.02,0.0204,0.0191,0.0167,0.0164,0.0148,0.0127,0.0123,0.009,0.0083,0.007,0.0049,0.0051,0.0032,0.0014,0.0013,0.0054,0.0058,0.0061,0.0076,0.0028,0,0,0,0,0,0.0229,0.0233,0.0215,0.0218,0.0213,0.0188,0.018,0.0167,0.0146,0.0136,0.0111,0.0085,0.0066,0.0055,0.0034,0.0026,0.0004,0.0025,0.0028,0.0032,0.0038,0.0012,0.0014,-0.0008,-0.0008,-0.0008,0,0,0.0236,0.023,0.0231,0.0222,0.0208,0.0212,0.0182,0.0176,0.0177,0.0134,0.0124,0.0096,0.0066,0.0055,0.0048,0.0039,0.0026,0.0032,0.0035,0.004,0.0012,0.0014,0.0016,-0.0008,-0.0008,-0.0008,0,0,0.0258,0.0248,0.026,0.0253,0.024,0.0228,0.0229,0.0206,0.0193,0.018,0.0151,0.0129,0.0097,0.0079,0.0066,0.0076,0.0045,0.0066,0.0097,0.0071,0.0073,0.0075,0.005,0.0049,0.0069,0.0069,0.0069,0,0.0266,0.0281,0.0261,0.027,0.0271,0.024,0.0255,0.024,0.0212,0.0207,0.0184,0.0138,0.011,0.0102,0.0103,0.0085,0.0064,0.0086,0.0077,0.0078,0.0078,0.0053,0.0051,0.0071,0.0071,0.0071,0.0071,0,0.0298,0.0307,0.0314,0.0319,0.0316,0.0324,0.0305,0.0296,0.0275,0.0258,0.0238,0.0193,0.0168,0.0153,0.0129,0.0122,0.0103,0.0086,0.0071,0.0084,0.0056,0.0053,0.0075,0.0074,0.0073,0.0073,0,0,0.0324,0.0336,0.0338,0.0352,0.0345,0.035,0.0352,0.0349,0.0357,0.0314,0.0316,0.0271,0.0242,0.0224,0.0189,0.0162,0.0142,0.0128,0.0125,0.0111,0.0084,0.0073,0.0068,0.0121,0.0121,0.0121,0.0064,0,0.0356,0.0392,0.0386,0.042,0.0438,0.0416,0.0423,0.0413,0.0397,0.0389,0.0336,0.0322,0.0271,0.0259,0.0224,0.0167,0.0136,0.0159,0.0067,0.0064,0.0058,0.0065,0.0089,0.004,0.006,0.006,0.0059,0,0.0391,0.0413,0.0453,0.0478,0.0483,0.0494,0.0507,0.0512,0.0492,0.0477,0.0447,0.0404,0.0361,0.0312,0.0219,0.0235,0.0166,0.0113,0.0109,0.0079,0.0047,0.0028,0.0033,0.0054,0.0054,0.0055,0.0055,0,0.0428,0.0461,0.0498,0.0505,0.0524,0.0533,0.0543,0.0537,0.0558,0.0535,0.054,0.0474,0.0449,0.0353,0.0238,0.0228,0.0132,0.0104,0.0027,0.0025,0.0018,0.0016,0.0036,0.0036,0.0036,0.0036,0.0036,0,0.0469,0.0498,0.0517,0.0536,0.0584,0.0576,0.0623,0.0619,0.0629,0.0664,0.0591,0.0599,0.0457,0.0382,0.0266,0.0142,0.0151,0.0035,0.0011,0.0036,0.0037,0.0027,0.0027,0.0034,0.0034,0.0035,0.0035,0,0.0503,0.0514,0.0561,0.0588,0.0602,0.0635,0.0685,0.0722,0.0717,0.0759,0.0754,0.0696,0.06,0.0451,0.0301,0.0191,0.0065,0.0016,0.0056,0.0037,-0.0034,-0.0031,-0.0075,-0.0076,-0.0076,-0.0077,-0.0077,0,0.0524,0.0551,0.0603,0.0637,0.0652,0.0703,0.0743,0.0764,0.0814,0.0825,0.0854,0.0773,0.0736,0.0511,0.0301,0.0098,0.0066,-0.0018,-0.0037,-0.0025,-0.0045,-0.0041,-0.0037,-0.0028,-0.0028,-0.0028,-0.0028,0,0.0567,0.0581,0.0621,0.0693,0.0742,0.0813,0.0873,0.0927,0.0956,0.099,0.1021,0.0989,0.0774,0.0579,0.0294,0.0158,0.0015,-0.0026,-0.0022,-0.0001,0.0015,-0.0003,-0.0,-0.0029,-0.0029,-0.0029,-0.0029,-0.0029,0.0597,0.0633,0.0684,0.0755,0.0819,0.0908,0.0977,0.1048,0.1134,0.1184,0.115,0.1105,0.0871,0.0518,0.027,0.0007,0.002,-0.0073,-0.0071,-0.007,-0.0051,-0.0037,-0.0087,-0.0087,-0.0088,-0.0088,-0.0088,0,0.0637,0.0677,0.0744,0.0829,0.0908,0.0936,0.1056,0.1128,0.1235,0.1265,0.1285,0.1065,0.0839,0.0562,0.0176,-0.0051,-0.0068,-0.0124,-0.0095,-0.0092,-0.009,-0.0072,-0.0115,-0.0115,-0.0116,-0.0117,0,0,0.0657,0.0724,0.0759,0.0888,0.0952,0.1068,0.1142,0.1244,0.1301,0.1339,0.1308,0.1249,0.0919,0.0636,0.0326,0.0101,0.0055,0.0058,0.0107,0.0181,0.0186,-0.0031,0.0005,0,0,0,0,0]}],[{"header":{"parameterUnit":"m.s-1","parameterCategory":2,"la1":30.2991,"la2":30.254,"lo1":-89.0895,"lo2":-89.0444,"dy":0.0017,"dx":0.0017,"nx":28,"ny":28,"refTime":"2024-10-07T21:00:00:Z","depth":"4","parameterNumber":2,"parameterNumberName":"U-component_of_CURRENTS"},"data":[0,0,0,0,0,0,0,0,0,0,0,0,0,0,0,0,0,0,0,0,0,0,0,0,0,0,0,0,0,0,0,0,0,0,0,0,0,0,0,0,0,0,0,0,0,0,0,0,0,0,0,0,0,0,0,0,0,0,0.1287,0.1288,0,0.1327,0.1327,0.1328,0.1365,0.1366,0.1366,0.1367,0.141,0.1411,0.1411,0,0,0,0,0,0,0,0,0,0,0,0,0,0.1232,0.1233,0.1287,0.1288,0.1289,0.1327,0.1328,0.1328,0.1365,0.1366,0.1366,0.1367,0.141,0.141,0.1411,0,0,0,0,0,0,0,0,0,0,0,0,0,0.1261,0.1233,0.1287,0.1313,0.1316,0.1327,0.1328,0.1328,0.1365,0.1366,0.1367,0.1368,0.141,0.141,0.1411,0.1397,0,0,0.1414,0.1414,0,0,0,0,0,0,0,0,0.1259,0.1262,0.1309,0.1312,0.1315,0.1344,0.1324,0.1352,0.1365,0.1344,0.1367,0.1368,0.1389,0.1391,0.1394,0.1399,0.1401,0.1414,0.1414,0.1415,0.1415,0,0,0,0,0,0,0,0.1257,0.1261,0.1301,0.1309,0.1313,0.1319,0.1324,0.1329,0.1359,0.1346,0.1349,0.1357,0.139,0.1393,0.1395,0.1402,0.1414,0.1415,0.1415,0.1415,0.1496,0.1498,0,0,0,0,0,0,0.1255,0.1259,0.13,0.1303,0.1291,0.132,0.1325,0.1332,0.1359,0.1365,0.1356,0.1358,0.1391,0.1394,0.1397,0.1466,0.1415,0.1415,0.1416,0.1494,0.1496,0.1498,0,0,0,0,0,0,0.1254,0.1259,0.1298,0.1283,0.1289,0.132,0.1327,0.1332,0.1366,0.1367,0.1372,0.1388,0.1392,0.1396,0.1432,0.1464,0.1416,0.1417,0.1492,0.1495,0.1497,0.1549,0,0,0,0,0,0,0.1252,0.1258,0.1276,0.1283,0.129,0.1325,0.1327,0.1332,0.1368,0.1373,0.1396,0.1399,0.1393,0.1431,0.1433,0.1465,0.1417,0.149,0.1494,0.1496,0.1545,0.1553,0.156,0,0,0,0,0,0.125,0.1265,0.1276,0.1282,0.1309,0.1326,0.1331,0.1354,0.1369,0.1388,0.1408,0.14,0.1452,0.1432,0.1434,0.1467,0.1489,0.1493,0.1496,0.1542,0.1551,0.1559,0,0,0,0,0,0,0.125,0.1271,0.1283,0.1305,0.1325,0.1334,0.1357,0.1371,0.1401,0.1416,0.1415,0.142,0.1465,0.146,0.1439,0.1502,0.1471,0.1475,0.1506,0.1514,0.1521,0.153,0.1418,0,0,0,0,0,0.1258,0.1279,0.1295,0.1317,0.133,0.135,0.1366,0.1383,0.1403,0.1419,0.1436,0.1457,0.1476,0.1491,0.1505,0.1534,0.1538,0.156,0.1567,0.1573,0.1583,0.1613,0.1624,0.151,0.151,0.151,0,0,0.1265,0.128,0.1293,0.132,0.1339,0.1362,0.1363,0.1397,0.1424,0.1417,0.147,0.1483,0.149,0.1528,0.1548,0.1531,0.1609,0.1578,0.1583,0.159,0.1618,0.1629,0.1639,0.1513,0.1512,0.1512,0,0,0.1279,0.1304,0.1324,0.1345,0.138,0.1391,0.1408,0.1437,0.1463,0.1504,0.1512,0.1548,0.1575,0.1589,0.1597,0.1652,0.1646,0.1663,0.1705,0.1735,0.1744,0.1752,0.1775,0.1785,0.1665,0.1665,0.1665,0,0.1291,0.1314,0.1334,0.1358,0.138,0.1408,0.1434,0.1461,0.1502,0.1524,0.1532,0.1594,0.1603,0.1647,0.1672,0.1669,0.1684,0.1668,0.1743,0.1752,0.1759,0.1781,0.1791,0.1668,0.1668,0.1668,0.1667,0,0.131,0.1342,0.1357,0.1397,0.1422,0.1452,0.1486,0.1524,0.1559,0.1582,0.1645,0.1665,0.1701,0.1714,0.1712,0.1775,0.1768,0.1748,0.1718,0.1774,0.1793,0.1803,0.1673,0.1671,0.1671,0.167,0,0,0.13,0.1359,0.1369,0.1392,0.1446,0.1464,0.1519,0.1564,0.1609,0.1655,0.1709,0.1754,0.1776,0.1788,0.1798,0.183,0.1899,0.1822,0.1822,0.184,0.197,0.1845,0.1843,0.1895,0.1897,0.1898,0.1963,0,0.1313,0.1357,0.1387,0.1437,0.146,0.1505,0.1552,0.1602,0.1652,0.1713,0.175,0.1809,0.1801,0.1837,0.1867,0.1895,0.1927,0.1883,0.1918,0.192,0.1797,0.1851,0.1905,0.197,0.1973,0.1974,0.1975,0,0.1317,0.1347,0.1396,0.1455,0.1472,0.1513,0.159,0.1637,0.1721,0.1766,0.1828,0.1862,0.1932,0.1915,0.1988,0.1963,0.1978,0.1991,0.1993,0.1864,0.1812,0.1904,0.1993,0.1991,0.199,0.1989,0.1988,0,0.1285,0.135,0.1389,0.1411,0.1485,0.1525,0.1573,0.1658,0.1706,0.1815,0.1863,0.1937,0.1991,0.2024,0.2053,0.2035,0.2121,0.2089,0.1989,0.198,0.205,0.204,0.2141,0.214,0.214,0.214,0.214,0,0.1268,0.1303,0.1385,0.1405,0.1462,0.1521,0.1596,0.1659,0.1755,0.181,0.1896,0.1946,0.2025,0.2074,0.2085,0.2065,0.2145,0.2008,0.1991,0.2071,0.2063,0.2057,0.2046,0.2143,0.2142,0.2142,0.2141,0,0.1225,0.1279,0.1328,0.1417,0.145,0.1495,0.1602,0.1646,0.1754,0.1832,0.1873,0.1979,0.2039,0.2093,0.2156,0.2093,0.2096,0.2069,0.2166,0.2151,0.1929,0.1921,0.196,0.1956,0.1953,0.195,0.1948,0,0.1202,0.1226,0.1328,0.136,0.1407,0.1483,0.1529,0.164,0.1683,0.1827,0.1847,0.1958,0.201,0.1996,0.2064,0.2077,0.205,0.2037,0.1969,0.1933,0.1913,0.191,0.1906,0.1943,0.1942,0.1941,0.194,0,0.1156,0.1209,0.1249,0.1317,0.1373,0.1421,0.1496,0.1516,0.1633,0.1746,0.1782,0.1817,0.1879,0.1916,0.1945,0.1947,0.2035,0.2002,0.2008,0.1944,0.1913,0.1895,0.1895,0.1929,0.1931,0.1932,0.1932,0,0.1127,0.1143,0.1205,0.1253,0.1317,0.1332,0.1382,0.1423,0.1478,0.1627,0.1637,0.1749,0.1857,0.185,0.1875,0.1871,0.1836,0.1766,0.1784,0.1797,0.1712,0.1646,0.1576,0,0,0,0,0,0.1086,0.1092,0.1131,0.1166,0.1223,0.1261,0.1342,0.139,0.1502,0.1485,0.1555,0.1603,0.1643,0.1705,0.1667,0.1806,0.1846,0.1755,0.1774,0.1867,0.188,0.1794,0,0,0,0,0,0,0.1056,0.1092,0.11,0.1083,0.1091,0.1135,0.1183,0.1258,0.1252,0.1377,0.1407,0.1508,0.1571,0.1649,0.1638,0.1656,0.1635,0.183,0.1826,0.1859,0.1871,0.1881,0.1798,0,0,0,0,0]},{"header":{"parameterUnit":"m.s-1","parameterCategory":2,"la1":30.2991,"la2":30.254,"lo1":-89.0895,"lo2":-89.0444,"dy":0.0017,"dx":0.0017,"nx":28,"ny":28,"refTime":"2024-10-07T21:00:00:Z","depth":"4","parameterNumber":3,"parameterNumberName":"V-component_of_CURRENTS"},"data":[0,0,0,0,0,0,0,0,0,0,0,0,0,0,0,0,0,0,0,0,0,0,0,0,0,0,0,0,0,0,0,0,0,0,0,0,0,0,0,0,0,0,0,0,0,0,0,0,0,0,0,0,0,0,0,0,0,0,0.0257,0.0257,0,0.0236,0.0235,0.0235,0.0218,0.0218,0.0217,0.0217,0.019,0.019,0.0189,0,0,0,0,0,0,0,0,0,0,0,0,0,0.0259,0.0259,0.0257,0.0257,0.0257,0.0236,0.0235,0.0235,0.0218,0.0218,0.0217,0.0217,0.0191,0.019,0.0189,0,0,0,0,0,0,0,0,0,0,0,0,0,0.025,0.0259,0.0257,0.0246,0.0245,0.0236,0.0235,0.0235,0.0218,0.0218,0.0217,0.0217,0.0191,0.019,0.0189,0.0188,0,0,0.0186,0.0186,0,0,0,0,0,0,0,0,0.025,0.0249,0.0248,0.0247,0.0245,0.0229,0.0226,0.0219,0.0218,0.0228,0.0217,0.0217,0.0203,0.0201,0.0197,0.0186,0.0185,0.0186,0.0186,0.0185,0.0185,0,0,0,0,0,0,0,0.0251,0.025,0.0248,0.0248,0.0246,0.0233,0.0232,0.0224,0.0217,0.0227,0.0226,0.0224,0.0203,0.0198,0.0197,0.0185,0.0186,0.0185,0.0185,0.0185,0.0175,0.0176,0,0,0,0,0,0,0.0256,0.0251,0.0249,0.0248,0.0248,0.0234,0.0232,0.0234,0.0217,0.0214,0.0224,0.0223,0.02,0.0198,0.0195,0.0203,0.0185,0.0184,0.0184,0.0175,0.0175,0.0176,0,0,0,0,0,0,0.0256,0.0256,0.025,0.0249,0.0247,0.0234,0.0237,0.0234,0.0233,0.0215,0.0212,0.0226,0.02,0.0197,0.0194,0.0201,0.0184,0.0183,0.0175,0.0175,0.0176,0.021,0,0,0,0,0,0,0.0256,0.0256,0.0261,0.0249,0.0247,0.025,0.0237,0.0234,0.0232,0.0231,0.0215,0.0212,0.0199,0.0196,0.0193,0.0199,0.0183,0.0174,0.0175,0.0175,0.0209,0.0212,0.0214,0,0,0,0,0,0.0257,0.0266,0.0262,0.0262,0.0254,0.025,0.0249,0.0238,0.0233,0.0235,0.0225,0.0213,0.0197,0.0195,0.0192,0.0198,0.0174,0.0175,0.0175,0.0207,0.0211,0.0214,0,0,0,0,0,0,0.0269,0.0265,0.026,0.0268,0.0261,0.0248,0.025,0.0242,0.0236,0.0237,0.0218,0.0215,0.0214,0.0202,0.0201,0.0197,0.0183,0.0183,0.0208,0.0212,0.0215,0.0221,0.0182,0,0,0,0,0,0.0275,0.0282,0.0272,0.0279,0.0277,0.0265,0.0262,0.0256,0.0248,0.0245,0.0233,0.0222,0.0214,0.021,0.0201,0.0201,0.0178,0.0202,0.0205,0.0208,0.021,0.0181,0.0182,0.0178,0.0178,0.0178,0,0,0.0282,0.028,0.0284,0.0282,0.0276,0.0281,0.0263,0.0264,0.0268,0.0244,0.0246,0.0232,0.0216,0.0215,0.0214,0.0207,0.0197,0.0208,0.0211,0.0212,0.0182,0.0182,0.0182,0.0178,0.0178,0.0178,0,0,0.0299,0.0298,0.0309,0.0306,0.0303,0.0297,0.0299,0.0289,0.0285,0.0284,0.0267,0.0258,0.0246,0.0235,0.0229,0.0242,0.0212,0.0239,0.0259,0.0231,0.0231,0.023,0.0201,0.0198,0.0241,0.0241,0.0241,0,0.0307,0.032,0.0311,0.0319,0.0323,0.0307,0.032,0.0313,0.0303,0.0302,0.029,0.0269,0.0256,0.0252,0.0256,0.0248,0.0226,0.0248,0.0234,0.0234,0.0233,0.0202,0.0198,0.0243,0.0242,0.0242,0.0242,0,0.033,0.0341,0.0348,0.0356,0.0358,0.0367,0.0358,0.0357,0.0349,0.034,0.0332,0.0307,0.0296,0.0288,0.0277,0.0267,0.0252,0.0241,0.0226,0.0235,0.0202,0.0198,0.0245,0.0244,0.0244,0.0243,0,0,0.0347,0.0363,0.0365,0.0378,0.038,0.0386,0.0392,0.0395,0.0404,0.0381,0.0384,0.0361,0.0344,0.0334,0.0313,0.0288,0.0261,0.0265,0.0263,0.0237,0.0196,0.0182,0.0175,0.0247,0.0246,0.0246,0.0175,0,0.0369,0.0397,0.0398,0.0427,0.0442,0.0434,0.0443,0.0442,0.0436,0.0433,0.0398,0.0394,0.0363,0.0359,0.0328,0.0282,0.0251,0.0281,0.019,0.0188,0.0175,0.017,0.0244,0.0171,0.017,0.0169,0.0169,0,0.039,0.0408,0.0442,0.0469,0.0475,0.0489,0.0506,0.0515,0.0503,0.0497,0.0477,0.0449,0.0414,0.0384,0.0299,0.032,0.0262,0.0218,0.0214,0.0186,0.0165,0.016,0.0159,0.016,0.0161,0.0161,0.0162,0,0.0408,0.044,0.0472,0.048,0.0504,0.0519,0.0533,0.0535,0.0554,0.0541,0.0546,0.0492,0.0472,0.0391,0.03,0.0299,0.0199,0.0185,0.0114,0.0112,0.013,0.0131,0.0118,0.0118,0.0118,0.0118,0.0118,0,0.0429,0.0455,0.0486,0.0502,0.0546,0.055,0.0595,0.0596,0.0609,0.0634,0.0585,0.0582,0.0473,0.0403,0.0311,0.0199,0.0204,0.0114,0.0092,0.0146,0.015,0.0126,0.0128,0.0115,0.0116,0.0117,0.0117,0,0.0442,0.046,0.0502,0.0539,0.0557,0.0589,0.0645,0.0674,0.0678,0.0706,0.0704,0.0649,0.0556,0.0438,0.0306,0.0222,0.0112,0.0069,0.0136,0.0119,0.0038,0.0043,-0.002,-0.0021,-0.0022,-0.0022,-0.0023,0,0.0449,0.0472,0.0533,0.0566,0.0588,0.0641,0.068,0.0708,0.0742,0.0745,0.0757,0.0682,0.0626,0.0432,0.0302,0.0117,0.0089,0.0026,0.0027,0.0039,0.0024,0.003,0.0036,-0.0024,-0.0025,-0.0025,-0.0025,0,0.0466,0.0491,0.0526,0.0597,0.0648,0.071,0.0766,0.0794,0.0822,0.0827,0.0799,0.0696,0.0589,0.0433,0.0289,0.0157,0.0064,0.0016,0.0017,0.0017,0.0032,0.002,0.0026,-0.0028,-0.0028,-0.0028,-0.0027,0,0.0482,0.051,0.0562,0.0624,0.0692,0.0754,0.0786,0.082,0.0851,0.0847,0.0836,0.0718,0.0653,0.0454,0.0323,0.0189,0.0149,0.0098,0.0094,0.0096,0.0147,0.0185,0.015,0,0,0,0,0,0.0494,0.0527,0.0585,0.0652,0.0721,0.0765,0.0832,0.0857,0.088,0.0865,0.0852,0.075,0.0553,0.0474,0.0336,0.0296,0.0121,0.0128,0.0059,-0.0046,-0.0042,-0.0003,0,0,0,0,0,0,0.05,0.0554,0.0582,0.0666,0.0717,0.0798,0.0842,0.0861,0.0855,0.0853,0.0756,0.0706,0.0521,0.0632,0.0331,0.0291,0.0225,0.004,0.0037,-0.0048,-0.0045,-0.0042,0.0,0,0,0,0,0]}]]